EW4931 Weather Reports


time (UTC)temp
C
wind
direction
speed
KPH
gust
KPH
rain 1hr
cm
rain 24hr
cm
rain mn
cm
humidity
%
barometer
mb
20260506151025 11 178 4.8 9.7 0.00 0.00 0.00 38 1013.4
20260506151013 10 192 3.2 19.3 0.00 0.00 0.00 40 1013.3
20260506150026 10 149 11.3 19.3 0.00 0.00 0.00 40 1013.3
20260506145525 10 161 3.2 17.7 0.00 0.00 0.00 39 1013.3
20260506145244 10 178 12.9 19.3 0.00 0.00 0.00 38 1013.2
20260506144525 10 173 8.0 20.9 0.00 0.00 0.00 37 1013.4
20260506144025 10 124 11.3 20.9 0.00 0.00 0.00 34 1013.4
20260506143524 10 206 6.4 14.5 0.00 0.00 0.00 35 1013.4
20260506143025 11 183 8.0 17.7 0.00 0.00 0.00 37 1013.5
20260506142525 10 176 4.8 24.1 0.00 0.00 0.00 38 1013.4
20260506142253 10 171 12.9 24.1 0.00 0.00 0.00 35 1013.4
20260506141524 10 131 16.1 24.1 0.00 0.00 0.00 35 1013.4
20260506141025 11 127 12.9 22.5 0.00 0.00 0.00 34 1013.4
20260506140524 10 134 4.8 14.5 0.00 0.00 0.00 36 1013.4
20260506140026 10 175 6.4 20.9 0.00 0.00 0.00 35 1013.3
20260506135524 10 183 11.3 20.9 0.00 0.00 0.00 35 1013.3
20260506135024 10 125 12.9 24.1 0.00 0.00 0.00 36 1013.4
20260506134524 11 144 11.3 24.1 0.00 0.00 0.00 35 1013.3
20260506134024 11 166 4.8 17.7 0.00 0.00 0.00 37 1013.3
20260506133745 10 176 6.4 17.7 0.00 0.00 0.00 38 1013.3
20260506133024 10 148 12.9 17.7 0.00 0.00 0.00 38 1013.3
20260506132523 11 134 9.7 24.1 0.00 0.00 0.00 39 1013.3
20260506132245 10 169 11.3 25.7 0.00 0.00 0.00 38 1013.4
20260506131747 10 202 14.5 25.7 0.00 0.00 0.00 39 1013.4
20260506131023 10 166 9.7 20.9 0.00 0.00 0.00 39 1013.4
20260506130523 10 162 14.5 24.1 0.00 0.00 0.00 37 1013.4
20260506130024 11 116 17.7 24.1 0.00 0.00 0.00 38 1013.3
20260506125523 10 141 11.3 29.0 0.00 0.00 0.00 39 1013.3
20260506125023 10 148 11.3 29.0 0.00 0.00 0.00 38 1013.3
20260506124522 10 175 11.3 25.7 0.00 0.00 0.00 38 1013.4
20260506124023 11 130 12.9 25.7 0.00 0.00 0.00 38 1013.3
20260506123742 11 200 8.0 19.3 0.00 0.00 0.00 39 1013.3
20260506123023 11 142 11.3 17.7 0.00 0.00 0.00 39 1013.2
20260506122744 11 148 6.4 20.9 0.00 0.00 0.00 39 1013.3
20260506122023 11 142 14.5 20.9 0.00 0.00 0.00 38 1013.4
20260506121523 11 118 8.0 22.5 0.00 0.00 0.00 38 1013.4
20260506121024 11 99 12.9 22.5 0.00 0.00 0.00 38 1013.4
20260506120522 11 73 8.0 22.5 0.00 0.00 0.00 39 1013.4
20260506120022 11 155 9.7 19.3 0.00 0.00 0.00 39 1013.4
20260506115750 11 148 8.0 19.3 0.00 0.00 0.00 39 1013.4
20260506115021 10 154 6.4 22.5 0.00 0.00 0.00 40 1013.4
20260506114523 10 106 14.5 22.5 0.00 0.00 0.00 38 1013.4
20260506114506 11 116 14.5 22.5 0.00 0.00 0.00 38 1013.4
20260506113522 11 221 9.7 20.9 0.00 0.00 0.00 37 1013.5
20260506113022 11 203 6.4 19.3 0.00 0.00 0.00 38 1013.4
20260506112522 11 133 4.8 11.3 0.00 0.00 0.00 38 1013.4
20260506112021 11 134 8.0 16.1 0.00 0.00 0.00 37 1013.5
20260506111521 11 282 8.0 16.1 0.00 0.00 0.00 37 1013.5
20260506111022 11 162 6.4 16.1 0.00 0.00 0.00 35 1013.5
20260506110521 11 202 6.4 16.1 0.00 0.00 0.00 34 1013.5
20260506110020 11 148 8.0 16.1 0.00 0.00 0.00 35 1013.6
20260506105520 11 161 6.4 20.9 0.00 0.00 0.00 36 1013.5
20260506105020 11 172 6.4 20.9 0.00 0.00 0.00 37 1013.6
20260506104520 11 165 8.0 19.3 0.00 0.00 0.00 37 1013.5
20260506104020 10 186 11.3 20.9 0.00 0.00 0.00 38 1013.6
20260506104006 10 131 12.9 20.9 0.00 0.00 0.00 36 1013.7
20260506103020 11 121 6.4 17.7 0.00 0.00 0.00 28 1013.7
20260506102520 11 145 9.7 17.7 0.00 0.00 0.00 26 1013.8
20260506102020 11 92 8.0 14.5 0.00 0.00 0.00 27 1013.7
20260506101521 11 87 9.7 11.3 0.00 0.00 0.00 26 1013.8
20260506101019 11 0 4.8 8.0 0.00 0.00 0.00 26 1013.8
20260506100519 11 151 3.2 8.0 0.00 0.00 0.00 26 1013.9
20260506100020 11 173 3.2 8.0 0.00 0.00 0.00 27 1013.9
20260506095748 11 188 4.8 14.5 0.00 0.00 0.00 26 1013.9
20260506095019 11 250 9.7 16.1 0.00 0.00 0.00 25 1014.1
20260506094519 11 313 3.2 16.1 0.00 0.00 0.00 26 1014.0
20260506094019 11 269 4.8 8.0 0.00 0.00 0.00 27 1014.1
20260506093519 11 41 3.2 14.5 0.00 0.00 0.00 27 1014.1
20260506093019 11 358 11.3 14.5 0.00 0.00 0.00 26 1014.1
20260506092518 11 283 1.6 14.5 0.00 0.00 0.00 28 1014.1
20260506092018 11 0 8.0 14.5 0.00 0.00 0.00 30 1014.0
20260506091518 11 306 6.4 9.7 0.00 0.00 0.00 26 1014.0
20260506091018 11 44 3.2 11.3 0.00 0.00 0.00 28 1014.0
20260506090518 11 224 4.8 11.3 0.00 0.00 0.00 30 1014.0
20260506090020 11 309 4.8 8.0 0.00 0.00 0.00 32 1013.9
20260506085517 11 276 6.4 8.0 0.00 0.00 0.00 33 1014.0
20260506085018 11 142 6.4 8.0 0.00 0.00 0.00 31 1013.9
20260506084517 10 124 3.2 11.3 0.00 0.00 0.00 31 1013.9
20260506084017 10 331 3.2 11.3 0.00 0.00 0.00 32 1013.9
20260506083517 10 357 4.8 11.3 0.00 0.00 0.00 34 1013.9
20260506083018 10 302 4.8 11.3 0.00 0.00 0.00 32 1013.9
20260506082517 11 331 6.4 8.0 0.00 0.00 0.00 34 1013.9
20260506082018 11 248 3.2 8.0 0.00 0.00 0.00 34 1013.9
20260506081517 10 8 4.8 8.0 0.00 0.00 0.00 33 1013.9
20260506081017 10 345 3.2 8.0 0.00 0.00 0.00 33 1013.8
20260506080516 10 316 3.2 8.0 0.00 0.00 0.00 34 1013.7
20260506073516 9 290 6.4 9.7 0.00 0.00 0.00 37 1013.6
20260506073017 9 340 6.4 9.7 0.00 0.00 0.00 37 1013.6
20260506072516 9 310 6.4 9.7 0.00 0.00 0.00 36 1013.6
20260506072240 9 310 3.2 8.0 0.00 0.00 0.00 38 1013.6
20260506071516 9 316 6.4 8.0 0.00 0.00 0.00 39 1013.6
20260506071016 9 0 1.6 8.0 0.00 0.00 0.00 42 1013.6
20260506070515 9 23 3.2 8.0 0.00 0.00 0.00 44 1013.6
20260506062516 8 309 3.2 6.4 0.00 0.00 0.00 48 1013.7
20260506062016 8 320 4.8 6.4 0.00 0.00 0.00 51 1013.6
20260506061514 7 34 3.2 6.4 0.00 0.00 0.00 53 1013.6
20260506061014 7 52 3.2 6.4 0.00 0.00 0.00 54 1013.6
20260506060515 7 47 3.2 4.8 0.00 0.00 0.00 54 1013.6
20260506051013 5 83 0.0 3.2 0.00 0.00 0.00 76 1013.2
20260506050513 5 83 0.0 3.2 0.00 0.00 0.00 78 1013.2
20260506045013 4 83 0.0 0.0 0.00 0.00 0.00 87 1013.1
20260506044950 3 83 0.0 0.0 0.00 0.00 0.00 89 1013.1
20260506044013 3 83 0.0 0.0 0.00 0.00 0.00 91 1013.1
20260506043513 2 83 0.0 0.0 0.00 0.00 0.00 91 1013.1
20260506043012 2 83 0.0 0.0 0.00 0.00 0.00 91 1013.0
20260506042730 2 83 0.0 0.0 0.00 0.00 0.00 91 1013.0
20260506042012 1 83 0.0 0.0 0.00 0.00 0.00 91 1012.9
20260506041512 1 83 0.0 0.0 0.00 0.00 0.00 91 1012.9
20260506041012 1 83 0.0 0.0 0.00 0.00 0.00 92 1012.8
20260506040512 1 83 0.0 0.0 0.00 0.00 0.00 91 1012.9
20260506040012 1 83 0.0 0.0 0.00 0.00 0.00 91 1012.9
20260506035512 1 83 0.0 0.0 0.00 0.00 0.00 91 1012.8
20260506035011 1 83 0.0 0.0 0.00 0.00 0.00 92 1012.7
20260506034733 1 83 0.0 0.0 0.00 0.00 0.00 92 1012.7
20260506034012 1 83 0.0 0.0 0.00 0.00 0.00 93 1012.5
20260506033512 1 83 0.0 0.0 0.00 0.00 0.00 93 1012.6
20260506033238 0 83 0.0 0.0 0.00 0.00 0.00 93 1012.6
20260506032511 0 83 0.0 0.0 0.00 0.00 0.00 92 1012.5
20260506032011 0 83 0.0 0.0 0.00 0.00 0.00 92 1012.5
20260506031511 0 83 0.0 0.0 0.00 0.00 0.00 92 1012.4
20260506031011 0 83 0.0 0.0 0.00 0.00 0.00 91 1012.3
20260506030511 0 83 0.0 0.0 0.00 0.00 0.00 91 1012.3
20260506030010 0 83 0.0 0.0 0.00 0.00 0.00 91 1012.3
20260506025510 0 83 0.0 0.0 0.00 0.00 0.00 91 1012.2
20260506025011 0 83 0.0 0.0 0.00 0.00 0.00 91 1012.1
20260506024510 0 83 0.0 0.0 0.00 0.00 0.00 91 1012.1
20260506024010 0 83 0.0 0.0 0.00 0.00 0.00 91 1012.2
20260506023510 0 83 0.0 0.0 0.00 0.00 0.00 91 1012.2
20260506023010 0 83 0.0 0.0 0.00 0.00 0.00 91 1012.1
20260506022510 0 83 0.0 0.0 0.00 0.00 0.00 90 1012.2
20260506022010 0 83 0.0 0.0 0.00 0.00 0.00 90 1012.1
20260506022004 0 83 0.0 0.0 0.00 0.00 0.00 90 1012.1
20260506021010 0 83 0.0 0.0 0.00 0.00 0.00 90 1012.0
20260506020509 0 83 0.0 0.0 0.00 0.00 0.00 90 1012.0
20260506020010 0 83 0.0 0.0 0.00 0.00 0.00 90 1011.9
20260506015509 0 83 0.0 0.0 0.00 0.00 0.00 90 1011.9
20260506015009 0 83 0.0 0.0 0.00 0.00 0.00 89 1011.9
20260506014509 0 83 0.0 0.0 0.00 0.00 0.00 89 1011.8
20260506014227 0 83 0.0 0.0 0.00 0.00 0.00 89 1011.8
20260506013509 0 83 0.0 0.0 0.00 0.00 0.00 89 1011.8
20260506013009 1 83 0.0 0.0 0.00 0.00 0.00 89 1011.7
20260506012508 1 83 0.0 0.0 0.00 0.00 0.00 89 1011.7
20260506012008 1 83 0.0 0.0 0.00 0.00 0.00 88 1011.6
20260506011739 1 83 0.0 0.0 0.00 0.00 0.00 89 1011.5
20260506011008 1 83 0.0 0.0 0.00 0.00 0.00 89 1011.5
20260506010947 1 83 0.0 0.0 0.00 0.00 0.00 90 1011.5
20260506010008 1 83 0.0 0.0 0.00 0.00 0.00 90 1011.3
20260506005506 1 83 0.0 0.0 0.00 0.00 0.00 91 1011.2
20260506005005 1 83 0.0 0.0 0.00 0.00 0.00 91 1011.3
20260506004505 1 83 0.0 0.0 0.00 0.00 0.00 91 1011.2
20260506004228 1 83 0.0 0.0 0.00 0.00 0.00 91 1011.2
20260506003506 1 83 0.0 0.0 0.00 0.00 0.00 91 1011.2
20260506003005 1 83 0.0 0.0 0.00 0.00 0.00 91 1011.2
20260506002505 1 83 0.0 0.0 0.00 0.00 0.00 90 1011.1
20260506002005 1 83 0.0 0.0 0.00 0.00 0.00 90 1011.1
20260506001505 1 83 0.0 0.0 0.00 0.00 0.00 90 1011.1
20260506001005 1 83 0.0 0.0 0.00 0.00 0.00 90 1011.0
20260506000504 1 83 0.0 0.0 0.00 0.00 0.00 90 1011.0
20260506000006 1 83 0.0 0.0 0.00 0.00 0.00 90 1011.0
20260505235504 1 83 0.0 0.0 0.00 0.00 0.00 89 1011.0
20260505235004 1 83 0.0 0.0 0.00 0.00 0.00 89 1010.9
20260505234504 2 83 0.0 0.0 0.00 0.00 0.00 89 1010.9
20260505234004 2 83 0.0 0.0 0.00 0.00 0.00 90 1011.0
20260505233503 2 83 0.0 0.0 0.00 0.00 0.00 89 1010.9
20260505233004 2 83 0.0 1.6 0.00 0.00 0.00 89 1010.9
20260505232504 2 83 0.0 1.6 0.00 0.00 0.00 89 1010.9
20260505232003 2 83 0.0 0.0 0.00 0.00 0.00 89 1010.8
20260505231504 2 83 0.0 1.6 0.00 0.00 0.00 89 1010.8
20260505231004 2 83 0.0 1.6 0.00 0.00 0.00 88 1010.7
20260505230725 2 83 0.0 0.0 0.00 0.00 0.00 89 1010.8
20260505230016 2 83 0.0 0.0 0.00 0.00 0.00 88 1010.7
20260505225504 3 83 0.0 0.0 0.00 0.00 0.00 88 1010.7
20260505225005 3 83 0.0 0.0 0.00 0.00 0.00 87 1010.7
20260505224505 3 83 0.0 0.0 0.00 0.00 0.00 88 1010.7
20260505224004 3 83 0.0 0.0 0.00 0.00 0.00 87 1010.7
20260505223504 3 83 0.0 0.0 0.00 0.00 0.00 87 1010.7
20260505223005 3 83 0.0 0.0 0.00 0.00 0.00 87 1010.6
20260505222504 3 83 0.0 0.0 0.00 0.00 0.00 86 1010.6
20260505222004 3 83 0.0 1.6 0.00 0.00 0.00 86 1010.5
20260505221504 3 83 0.0 3.2 0.00 0.00 0.00 87 1010.6
20260505221004 3 83 3.2 3.2 0.00 0.00 0.00 86 1010.5
20260505220504 3 83 0.0 3.2 0.00 0.00 0.00 86 1010.5
20260505220004 3 83 1.6 3.2 0.00 0.00 0.00 86 1010.4
20260505215728 3 83 0.0 3.2 0.00 0.00 0.00 85 1010.4
20260505215004 3 83 3.2 3.2 0.00 0.00 0.00 86 1010.4
20260505214504 3 83 1.6 3.2 0.00 0.00 0.00 86 1010.4
20260505214003 3 83 0.0 0.0 0.00 0.00 0.00 86 1010.4
20260505213504 3 83 0.0 0.0 0.00 0.00 0.00 85 1010.4
20260505213004 3 83 0.0 0.0 0.00 0.00 0.00 85 1010.3
20260505212719 3 83 0.0 1.6 0.00 0.00 0.00 84 1010.3
20260505212002 3 83 0.0 3.2 0.00 0.00 0.00 84 1010.3
20260505211502 4 83 1.6 3.2 0.00 0.00 0.00 84 1010.2
20260505211002 4 83 0.0 3.2 0.00 0.00 0.00 84 1010.2
20260505210503 4 83 0.0 1.6 0.00 0.00 0.00 84 1010.3
20260505210225 4 83 0.0 0.0 0.00 0.00 0.00 83 1010.2
20260505205503 4 83 0.0 0.0 0.00 0.00 0.00 83 1010.2
20260505205004 5 83 0.0 0.0 0.00 0.00 0.00 84 1010.1
20260505204504 4 83 0.0 1.6 0.00 0.00 0.00 83 1010.1
20260505204003 4 83 0.0 1.6 0.00 0.00 0.00 82 1010.0
20260505203504 5 83 0.0 0.0 0.00 0.00 0.00 82 1009.9
20260505203005 5 83 0.0 0.0 0.00 0.00 0.00 81 1009.8
20260505202505 5 83 0.0 0.0 0.00 0.00 0.00 81 1009.8
20260505202001 5 83 0.0 0.0 0.00 0.00 0.00 81 1009.7
20260505201456 5 83 0.0 0.0 0.00 0.00 0.00 80 1009.7
20260505200949 5 83 0.0 0.0 0.00 0.00 0.00 80 1009.7
20260505200709 6 83 0.0 1.6 0.00 0.00 0.00 80 1009.6
20260505195944 6 83 0.0 3.2 0.00 0.00 0.00 79 1009.7
20260505195432 6 83 1.6 3.2 0.00 0.00 0.00 79 1009.6
20260505194928 6 83 1.6 4.8 0.00 0.00 0.00 79 1009.6
20260505194406 6 83 3.2 6.4 0.00 0.00 0.00 79 1009.5
20260505194344 6 83 3.2 6.4 0.00 0.00 0.00 79 1009.4
20260505193404 6 82 3.2 6.4 0.00 0.00 0.00 79 1009.4
20260505192904 6 82 3.2 6.4 0.00 0.00 0.00 78 1009.3
20260505192403 6 82 4.8 6.4 0.00 0.00 0.00 78 1009.3
20260505191903 6 82 3.2 6.4 0.00 0.00 0.00 78 1009.2
20260505191404 6 82 3.2 9.7 0.00 0.00 0.00 78 1009.2
20260505190903 7 61 3.2 11.3 0.00 0.00 0.00 78 1009.1
20260505190403 7 73 8.0 11.3 0.00 0.00 0.00 77 1009.1
20260505185903 7 39 8.0 11.3 0.00 0.00 0.00 76 1009.1
20260505185403 7 86 8.0 16.1 0.00 0.00 0.00 73 1009.0
20260505184903 7 58 11.3 17.7 0.00 0.00 0.00 69 1008.9
20260505184403 8 71 12.9 17.7 0.00 0.00 0.00 47 1008.8
20260505184125 8 347 1.6 6.4 0.00 0.00 0.00 43 1008.7
20260505183403 9 344 3.2 8.0 0.00 0.00 0.00 42 1008.7
20260505182903 9 312 3.2 8.0 0.00 0.00 0.00 42 1008.6
20260505182404 9 317 4.8 9.7 0.00 0.00 0.00 41 1008.5
20260505181904 9 317 4.8 11.3 0.00 0.00 0.00 41 1008.5
20260505181404 9 334 6.4 11.3 0.00 0.00 0.00 40 1008.4
20260505181123 9 310 8.0 14.5 0.00 0.00 0.00 40 1008.3
20260505180403 9 300 6.4 14.5 0.00 0.00 0.00 39 1008.3
20260505175903 9 323 8.0 11.3 0.00 0.00 0.00 39 1008.3
20260505175404 9 307 6.4 16.1 0.00 0.00 0.00 39 1008.2
20260505174904 9 293 6.4 16.1 0.00 0.00 0.00 39 1008.2
20260505174403 9 326 6.4 17.7 0.00 0.00 0.00 39 1008.1
20260505173903 9 307 12.9 17.7 0.00 0.00 0.00 39 1008.1
20260505173626 10 288 8.0 16.1 0.00 0.00 0.00 38 1008.0
20260505173128 10 275 6.4 11.3 0.00 0.00 0.00 39 1008.0
20260505172403 10 320 9.7 16.1 0.00 0.00 0.00 39 1007.9
20260505171903 10 290 9.7 16.1 0.00 0.00 0.00 37 1007.9
20260505171403 10 289 4.8 9.7 0.00 0.00 0.00 37 1007.8
20260505170903 10 285 6.4 16.1 0.00 0.00 0.00 37 1007.9
20260505170404 10 282 4.8 16.1 0.00 0.00 0.00 37 1007.8
20260505165904 10 303 6.4 16.1 0.00 0.00 0.00 37 1007.8
20260505165403 10 299 6.4 16.1 0.00 0.00 0.00 37 1007.8
20260505164903 10 293 8.0 14.5 0.00 0.00 0.00 36 1007.8
20260505164403 10 306 8.0 14.5 0.00 0.00 0.00 37 1007.8
20260505163903 10 314 8.0 14.5 0.00 0.00 0.00 36 1007.7
20260505163403 10 293 4.8 22.5 0.00 0.00 0.00 37 1007.7
20260505163129 10 292 8.0 22.5 0.00 0.00 0.00 36 1007.7
20260505162404 10 313 8.0 19.3 0.00 0.00 0.00 37 1007.7
20260505161904 10 313 9.7 19.3 0.00 0.00 0.00 35 1007.7
20260505161404 10 290 9.7 16.1 0.00 0.00 0.00 35 1007.7
20260505160903 10 326 8.0 20.9 0.00 0.00 0.00 35 1007.6
20260505160404 11 314 8.0 20.9 0.00 0.00 0.00 35 1007.7
20260505160127 11 316 9.7 19.3 0.00 0.00 0.00 34 1007.6
20260505152902 11 0 6.4 17.7 0.00 0.00 0.00 34 1007.3
20260505152625 11 288 4.8 16.1 0.00 0.00 0.00 34 1007.4
20260505151903 10 316 9.7 16.1 0.00 0.00 0.00 35 1007.4
20260505151403 11 286 9.7 19.3 0.00 0.00 0.00 34 1007.3